www.pogodaiklimat.ru

Погода и климат >> Архив погоды >> Индия >> Kota


ПОГОДА в Kota

  • Прогноз погоды в Kota
  • Монитор погоды в Kota
  • Климат города

АРХИВ ПОГОДЫ в Kota

Время (UTC), дата Ветер
(напр.,м/с)
 
Видим.   Явления Облачность Т
(С)
Тd
(С)
f
(%)
Тe
(С)
Тes
(С)
Комфортность P
(гПа)
Po
(гПа)
Тmin
(С)
Tmax
(С)
R
(мм)
R24
(мм)
S
(см)
06 19.05 З 2 4000 м 1/1 600 м
[Cu hum]
+40.8 +11.5 18 +40 +60 опасность
солнечного
удара
1003.5 1004.0
12 19.05 С 1 4000 м 4/3 600 м
[Sc Ac trans]
+43.6 +3.5 9 +40 +43 очень
жарко
998.4 998.0 +45.1
15 19.05 штиль 0 4000 м 5/5 600 м
[Sc]
+38.4 +10.9 19 +37 +37 очень
жарко
1000.5 1001.0
18 19.05 СВ 1 4000 м 5/5 600 м
[Sc]
+33.8 +12.0 27 +34 +34 очень
жарко
1002.3 1002.0
00 20.05 СЗ 1 4000 м ясно +31.6 +11.9 30 +32 +32 жарко 1004.1 1004.0
03 20.05 штиль 0 4000 м ясно +34.6 +10.7 23 +34 +44 очень
жарко
1003.8 1004.0 +30.7 +45.1
06 20.05 ЮЗ 1 4000 м ясно +40.6 +8.7 15 +39 +63 опасность
солнечного
удара
1002.6 1003.0
09 20.05 З 3 4000 м 1/1 600 м
[Cu hum]
+43.6 +0.7 7 +40 +52 опасность
солнечного
удара
999.0 999.0
12 20.05 З 3 4000 м 4/4 600 м
[Cu hum]
+42.8 +3.8 9 +40 +41 очень
жарко
997.1 997.0 +43.8
15 20.05 З 1 4000 м ясно +38.6 +6.4 14 +36 +36 очень
жарко
999.2 999.0
18 20.05 З 1 4000 м ясно +34.4 +9.2 21 +33 +33 жарко 1000.9 1001.0
21 20.05 штиль 0 4000 м ясно +33.0 +9.8 24 +32 +32 жарко 1000.5 1001.0
00 21.05 СЗ 1 4000 м ясно +32.2 +8.7 23 +31 +31 жарко 1002.0 1002.0
03 21.05 СЗ 2 4000 м 5/3 600 м
[Sc Ac trans]
+35.0 +13.8 28 +36 +40 очень
жарко
1003.8 1004.0 +31.7 +43.8
06 21.05 С 2 2000 м пыль ясно +36.6 +14.9 28 +38 +59 опасность
солнечного
удара
1003.5 1004.0
09 21.05 СЗ 1 2000 м пыль ясно +39.4 +9.9 17 +38 +58 опасность
солнечного
удара
999.8 1000.0
12 21.05 ЮВ 2 4000 м ясно +39.6 +10.3 17 +38 +41 очень
жарко
997.1 997.0 +41.7
15 21.05 СЗ 4 4000 м {метель} ясно +32.0 +13.9 33 +33 +33 жарко 1002.7 1003.0
18 21.05 С 1 4000 м 3/0
[Ac trans]
+29.6 +15.7 43 +32 +32 душно 1004.3 1004.0
21 21.05 СЗ 8 1000 м пыльная буря {метель} 4/3 600 м
[Sc Ac trans]
+28.6 +15.6 45 +31 +31 жарко 1006.5 1007.0
00 22.05 Ю 1 4000 м 9/8 600 м
[Sc As trans]
+27.4 +13.2 42 +29 +29 жарко 1002.4 1002.0
03 22.05 В 2 4000 м ясно +29.8 +13.4 37 +31 +40 жарко 1005.5 1006.0 +24.8 +41.7
06 22.05 СВ 1 4000 м ясно +33.8 +14.3 31 +35 +60 опасность
солнечного
удара
1005.6 1006.0
09 22.05 СЗ 3 4000 м 1/1 600 м
[Sc]
+38.0 +9.0 17 +36 +50 очень
жарко
1003.3 1003.0
12 22.05 С 3 4000 м ясно +37.4 +10.7 20 +36 +39 очень
жарко
1001.9 1002.0 +39.0
15 22.05 СЗ 1 4000 м ясно +35.0 +12.4 26 +35 +35 очень
жарко
1004.1 1004.0
18 22.05 С 1 4000 м ясно +32.4 +13.6 32 +34 +34 очень
жарко
1006.1 1006.0
21 22.05 штиль 0 4000 м ясно +30.4 +14.3 38 +32 +32 жарко 1004.6 1005.0
00 23.05 штиль 0 4000 м ясно +28.6 +13.1 38 +30 +30 жарко 1005.7 1006.0
03 23.05 штиль 0 4000 м ясно +34.2 +14.9 31 +36 +46 душно 1006.1 1006.0 +28.4 +39.0
06 23.05 С 2 4000 м ясно +38.4 +16.3 27 +40 +63 опасность
солнечного
удара
1005.4 1005.0
09 23.05 СЗ 2 4000 м 4/4 600 м
[Cu hum]
+40.4 +14.4 22 +41 +51 опасность
перегрева
1001.7 1002.0
12 23.05 СЗ 2 4000 м 4/4 600 м
[Cu hum]
+41.2 +13.3 19 +41 +43 опасность
перегрева
999.3 999.0 +42.1
15 23.05 С 2 4000 м ясно +36.6 +10.4 21 +36 +36 очень
жарко
1001.6 1002.0
18 23.05 штиль 0 4000 м ясно +34.4 +15.7 33 +37 +37 очень
душно
1002.3 1002.0
21 23.05 З 1 4000 м ясно +32.4 +15.8 37 +35 +35 душно 1002.2 1002.0
00 24.05 штиль 0 4000 м ясно +30.6 +15.8 41 +33 +33 душно 1002.5 1003.0
03 24.05 штиль 0 4000 м ясно +36.0 +17.5 34 +39 +50 очень
душно
1004.0 1004.0 +29.8 +42.1
06 24.05 штиль 0 4000 м ясно +40.0 +17.0 26 +42 +71 опасность
перегрева
1003.1 1003.0
09 24.05 СЗ 1 4000 м 3/3 600 м
[Cu med, cong]
+43.0 +12.3 17 +43 +57 опасность
перегрева
999.9 1000.0
12 24.05 СВ 4 4000 м пыль 8/5 600 м
[Sc diur, vesp Ac trans]
+38.4 +15.4 26 +40 +40 очень
душно
998.4 998.0 +44.4
15 24.05 СЗ 3 4000 м зарница {дождь} 9/5 600 м
[Sc diur, vesp Ac trans]
+35.4 +14.5 29 +37 +37 очень
душно
1001.4 1001.0 0.0
18 24.05 СЗ 1 4000 м гроза без осадков {дождь} 10/8 600 м
[Cb cap As op]
+31.8 +18.2 44 +36 +36 очень
душно
1003.3 1003.0 1
21 24.05 С 1 4000 м 9/6 600 м
[Sc As op]
+30.6 +18.2 48 +35 +35 очень
душно
1003.4 1003.0 1
00 25.05 С 1 4000 м 6/4 600 м
[Sc Ac trans]
+28.4 +21.2 65 +36 +36 очень
душно
1003.7 1004.0 1
03 25.05 штиль 0 4000 м 4/0
[Ac trans Ci fib]
+34.4 +18.5 39 +39 +47 очень
душно
1002.4 1002.0 +28.0 +44.4 1
06 25.05 С 2 4000 м ясно +39.6 +13.0 21 +40 +62 опасность
солнечного
удара
1001.7 1002.0
09 25.05 СВ 2 4000 м 6/5 600 м
[Sc diur, vesp Ac trans]
+43.0 +11.7 16 +42 +50 опасность
перегрева
999.0 999.0
12 25.05 СВ 4 4000 м 6/5 600 м
[Sc diur, vesp Ac trans]
+43.0 +9.9 14 +41 +42 опасность
перегрева
997.2 997.0 +44.3
15 25.05 штиль 0 4000 м ясно +36.4 +11.1 22 +36 +36 очень
жарко
999.3 999.0
18 25.05 З 2 4000 м ясно +35.2 +16.8 34 +38 +38 очень
душно
1000.8 1001.0
21 25.05 З 2 4000 м ясно +34.0 +15.5 33 +36 +36 душно 999.6 1000.0
00 26.05 штиль 0 4000 м ясно +32.6 +16.1 37 +35 +35 душно 1000.1 1000.0
03 26.05 З 1 4000 м ясно +36.8 +16.6 30 +39 +48 очень
душно
1001.7 1002.0 +28.8 +44.3

 

Местоположение метеостанции Kota (Rajasthan, Индия): широта 25.15 долгота 75.85 высота над уровнем моря 274 м.

В архиве по умолчанию представлена погода в Kota за последнюю неделю. Архивные данные за месяц целиком и за предыдущие месяцы, начиная с января 2011 года, Вы можете получить, выбрав интересующий диапазон дат из раскрывающегося списка и нажав кнопку "Ввод!".

Внимание! Время в таблицах - всемирное. Для получения местного времени необходимо прибавить поправку, которая в Kota равна 5.5 ч.

Смотрите также архив погоды в соседних городах и на ближайших метеорологических станциях:

Погода в Sheopur (Madhya Pradesh, Индия) (101 км)
Погода в Bhilwara (Rajasthan, Индия) (125 км)
Погода в Chittorgarh (Rajasthan, Индия) (127 км)
Погода в Rajgarh (Madhya Pradesh, Индия) (155 км)
Погода в Guna (Madhya Pradesh, Индия) (158 км)
Погода в Shivpuri (Madhya Pradesh, Индия) (182 км)
Погода в Jaipur (Rajasthan, Индия) (186 км)
Погода в Ajmer (Rajasthan, Индия) (190 км)
Погода в Shajapur (Madhya Pradesh, Индия) (197 км)
Погода в Udaipur Dabok (Rajasthan, Индия) (207 км)

Пояснения к столбцам:

Ветер - указаны скорость ветра в м/с - средняя за 10 мин, порывы в срок и между сроками (в фигурных скобках) и направление, откуда дует ветер: С - северный, СВ - северо-восточный, В - восточный, ЮВ - юго-восточный, Ю - южный, ЮЗ - юго-западный, З - западный, СЗ - северо-западный.
Видимость - горизонтальная дальность видимости в метрах или километрах. При видимости от 1 до 10 км при отсутствии осадков обычно наблюдается дымка, при ухудшении видимости до 1 км и менее - туман. В сухую погоду видимость может ухудшаться дымом, пылью или мглою.
Явления - указаны атмосферные явления, наблюдавшиеся в срок или в последний час перед сроком; фигурными скобками обозначены явления, наблюдавшиеся между сроками (за 1-3 часа до срока); квадратными скобками обозначены град или гололедные отложения с указанием их диаметра в мм.
Облачность - указаны через наклонную черту общая и нижняя облачность в баллах и высота нижней границы облаков в метрах; квадратными скобками обозначены формы облаков: Ci - перистые, Cs - перисто-слоистые, Cc - перисто-кучевые, Ac - высококучевые, As - высокослоистые, Sc - слоисто-кучевые, Ns - слоисто-дождевые, Cu - кучевые, Cb - кучево-дождевые. Подробнее классификацию облаков см. в Атласе облаков (PDF).
T - Температура воздуха - температура, измеренная на высоте 2 м над землей.
Td - Температура точки росы - температура, при понижении до которой содержащийся в воздухе водяной пар достигнет насыщения.
f - Относительная влажность воздуха - влажноcть воздуха, измеренная на высоте 2 м над землей.
Te - Эффективная температура - температура, которую ощущает одетый по сезону человек в тени. Характеристика душности погоды. При расчете учитывается влияние влажности воздуха и скорости ветра на теплоощущения человека.
Tes - Эффективная температура на солнце - температура, которую ощущает человек, с поправкой на солнечный нагрев. Характеристика знойности погоды. Зависит от высоты солнца над горизонтом, облачности и скорости ветра. Ночью, в пасмурную погоду, а также при ветре 12 м/с и более поправка равна нулю.
P - Атмосферное давление - приведенное к уровню моря атмосферное давление.
Po - Атмосферное давление - измеренное на уровне метеостанции атмосферное давление.
Tmin - Минимальная температура - минимум температуры воздуха на высоте 2 м над землей.
Tmax - Максимальная температура - максимум температуры воздуха на высоте 2 м над землей.
R - Количество осадков - Количество выпавших осадков за период времени, мм. При наведении курсора мыши на число - период времени, за который выпало указанное количество осадков.
R24 - Количество осадков - Количество выпавших осадков за 24 часа, мм.
S - Снежный покров - Высота снежного покрова, см. При наведении курсора мыши на число - состояние снежного покрова и степень покрытия местности в баллах.